Погода в Житомире

Хотите узнать прогноз погоды в Житомире? Тогда Вам сюда: Погода в Житомире

Поиск расширенной информации на нашем сайте:

Полезная информация:

Новости сайта



02.01.2020
Опубликован Долгосрочный прогноз погоды по городам России и ближнего зарубежья на январь 2020 года.
Карты: Прогноз на январь и февраль 2020 года, Сравнение прогнозируемой аномалии приземной температуры воздуха на январь 2020 года по разным моделям.




Погода в Житомире - сегодня

Время (UTC), дата Ветер
(°,м/с) 
Видим.   Явления Облачность Т
(°С)
Тd
(°С)
f(%) Тe
(°С)
Pmin
(гПа)
dP
(гПа)
Po
(мм)
O2
(г/м3)
Тmin Tmax R s Состояние
почвы
15 27.03.20 080 (В) 10 км    10/0 верхняя 
[Cs]
+14.8 -8.6 19 +15  1024.2  -2  749  287           
18 27.03.20 тихо ()   10 км    8/0 верхняя 
[Cc]
+8.4 -4.2 41 +8  1024  -0.8  748  293    +15.8       
21 27.03.20 тихо ()   10 км    10/0 средняя 
[Ac und]
+7.8 -3.2 46 +8  1022.9  -1.1  747  293           
00 28.03.20 тихо ()   10 км    10/0 средняя, верхняя 
[Ac trans|Ci fib]
+5.6 -3.9 50 +6  1021.3  -1.8  746  295           
03 28.03.20 тихо ()   10 км    9/0 средняя 
[Ac trans]
+4.5 -3.6 56 +5  1019.7  -1.6  745  296           
06 28.03.20 тихо ()   10 км    9/0 средняя 
[Ac trans]
+6.4 -3 51 +6  1018.5  -1  744  293  +3.9         
09 28.03.20 080 (В) 10 км    9/0 средняя, верхняя 
[Ac trans|Ci]
+11.9 -3.2 35 +12  1016.8  -1.2  743  287           
12 28.03.20 110 (В) 10 км    8/0 средняя 
[Ac trans]
+15.7 -7.2 20 +16  1014.1  -2.3  741  283           
15 28.03.20 тихо ()   10 км  в посл. час ливневой дождь  8/6 840 м кучево-дожд., средняя 
[Cb cap|Ac trans]
+14 -3.8 29 +14  1012.8  -1.4  740  284           
18 28.03.20 тихо ()   10 км  {ливн. осадки}  4/0 средняя 
[Ac trans]
+10.9 -1.1 43 +11  1011.8  -1.2  739  286    +16.7  0.0     
21 28.03.20 тихо ()   10 км    ясно 
+7 -2.5 51 +7  1010.9  -1.3  738  290           
00 29.03.20 тихо ()   10 км    ясно 
+2.8 -1.7 72 +3  1009.7  -1.5  737  294           
03 29.03.20 тихо ()   10 км    ясно 
+1 -2.5 77 +1  1008.7  -1.2  736  296           
06 29.03.20 тихо ()   10 км    5/0 верхняя 
[Ci fib]
+4 -2.8 61 +4  1008  -0.4  736  293  +0.3         
09 29.03.20 350 (С) 10 км    3/0 верхняя 
[Ci fib]
+13.8 -2.4 32 +15  1006.1  -0.9  735  282           
12 29.03.20 350 (С) 10 км    3/0 верхняя 
[Cc]
+17.8 -3.5 23 +19  1004.1  -1.6  734  278           
15 29.03.20 310 (СЗ) 10 км    6/0 средняя, верхняя 
[Ac trans|Cc]
+17.5 -3.3 24 +19  1003.1  -1  733  278           
18 29.03.20 330 (СЗ) 10 км    9/0 средняя 
[Ac trans]
+14.2 -4.1 28 +15  1004.2  0.8  734  281    +18.2       
21 29.03.20 310 (СЗ) 10 км    6/0 средняя 
[Ac trans]
+10.4 -3.3 38 +12  1004.9  0.3  734  285           
00 30.03.20 330 (СЗ) 10 км    ясно 
+8.8 -4.5 39 +10  1005.1  0.1  734  287           
03 30.03.20 310 (СЗ) 10 км    6/0 средняя 
[Ac trans]
+5.9 -0.6 63 +6  1006.9  1.5  735  290           
06 30.03.20 320 (СЗ) 10 км    8/8 600 м 
[Sc]
+3.8 -0.5 73 +3  1009.7  2.5             
09 30.03.20 340 (С) 10 км    10/10 500 м 
[Sc]
+5.1 -0.4 68 +5  1010.9  1.3  738  292           
12 30.03.20 320 (СЗ) 10 км    10/10 570 м кучево-дожд. 
[Cb cap]
+2.4 -2.5 70 +1  1012.6  1.4  739  296           
15 30.03.20 320 (СЗ) 4000 м  слаб. ливневой снег  10/10 600 м кучево-дожд. 
[Cb cap]
+0.3 -2.3 83 1014.5  1.6  740  298           
Время (UTC), дата Ветер
(°,м/с) 
Видим.   Явления Облачность Т
(°С)
Тd
(°С)
f(%) Тe
(°С)
Pmin
(гПа)
dP
(гПа)
Po
(мм)
O2
(г/м3)
Тmin Tmax R s Состояние
почвы

Для получения пояснительной информации подведите курсор к названию столбца.

ПОГОДА в Житомире - архив

Всё, что Вы хотите узнать о погоде в Житомире - удобно и подробно!

Выберите нужную дату (начиная с 1 января 2019* года) и нажмите кнопку "Найти".
Будут отображены архивные сводки погоды по пункту Житомир, начиная с указанной даты.


Отображать данные в формате CSV (для использования в таблицах Excel)


Внимание! Наш архив погоды предназначен исключительно для личного некоммерческого использования в познавательных целях. Если Вам необходимы официальные справки о состоянии погоды (для производственных, юридических, коммерческих и т.п. целей), обращайтесь в органы Росгидромета.

*Примечание: данная дата относится к архиву по метеостанциям СССР (Россия, СНГ, Балтия).
Архив по метеостанциям Зарубежной Европы и Азии (кроме Китая) хранится 10 дней, по другим регионам земного шара (Китай, Африка, Америка, Австралия, Океания) - 1 день.

Житомир - район местоположения метеостанции


Название, широта, долгота, высота метеостанции:
Житомир 50.2°ш. 28.7°д. 224 м над ур. моря [Украина]

Дополнительная информация

В oтличие oт бoльшинства пoгoдных сайтoв мы публикуем пoдрoбную метеoинфoрмацию в детальнoм прoфессиoнальнoм фoрмате.

Характеристики температуры и влажнoсти вoздуха измеряются на высoте 2 м в тени вдали oт зданий и деревьев.
Скoрoсть ветра измеряется на высoте 10 м (на урoвне рoста челoвека скoрoсть ветра ниже в 1.5-2 раза). Если метеoстанция нахoдится в гoрoде или в лесу, тo скoрoсть ветра занижена на 2-4 м/с пo сравнению с oткрытым местoм. Скoрoсть ветра над акватoриями крупных рек и oзёр, а также на вершинах хoлмoв на 2-5 м/с выше, чем в oбычных услoвиях.
Атмoсфернoе давление в разных тoчках местнoсти мoжет значительнo oтличаться oт давления на метеoстанции, в зависимoсти oт услoвий рельефа (при пoдъёме на 10 м давление пoнижается примернo на 1 мм рт.ст.).